Location: Ferchesar
(52.6477°N, 12.4298°E)
Time: 00:43:28
(UTC+01:00)

Vanguard 2 Rocket - Pass Details

Date: 06 December 2021
Orbit: 554 x 3325 km, 32.9° (Epoch: 21 January)

Event Time Altitude Azimuth Distance (km) Brightness Sun altitude
Rises 21:06:58 0° 246° (WSW) 3,997 10.6 -45.3°
Reaches altitude 10° 21:10:17 10° 229° (SW) 3,418 10.0 -45.7°
Enters shadow 21:11:24 13° 222° (SW) 3,307 9.8 -45.9°
Maximum altitude 21:16:14 20° 187° (S) 3,381 - -46.5°
Drops below altitude 10° 21:24:24 10° 149° (SSE) 4,916 - -47.6°
Sets 21:30:43 0° 135° (SE) 6,455 - -48.5°
